Powrót do katalogu

FENGYUN 1C DEB

AktywnySSO
NORAD 37594·DEBRIS·🇨🇳 China

Wystrzelony May 10, 1999 z Taiyuan Satellite Launch Center

Loading…

Następne Przeloty (najbliższe 24 godziny)

TLE

ŚwieżeSource: Space-Track

Epoka: Sep 11, 2026, 12:11 UTC

1 37594U 99025EKN 26254.50764123  .00000290  00000-0  17781-3 0  9998
2 37594  98.7094 281.0723 0085089 214.7230 144.8370 14.11344880816094

Śledź FENGYUN 1C DEB w czasie rzeczywistym z AllMySat

Download on the App Store